Retour au catalogue

CZ-4C R/B

ActifSSO
NORAD 40276·ROCKET BODY·🇨🇳 China

Lancé Oct 20, 2014 depuis Taiyuan Satellite Launch Center

Loading…

Prochains Passages (prochaines 24 heures)

TLE

FraisSource: Space-Track

Époque: Sep 14, 2026, 12:55 UTC

1 40276U 14063B   26257.53852925 -.00000019  00000-0  44907-4 0  9993
2 40276 100.2321 184.7880 0143185  39.1233 322.0146 13.43039704583502

Suivez CZ-4C R/B en temps réel avec AllMySat

Download on the App Store